Regional Weather Roundup
Issued by NWS

Home | Current Version | Previous Version | Graphics & Text | Print | Product List | Glossary On
Versions: 1 2 3 4 5 6 7 8 9 10 11 12 13 14 15 16 17 18 19 20 21 22 23 24 25 26 27 28 29 30 31 32 33 34 35 36 37 38 39 40 41 42
000
ASUS45 KPSR 250310
RWRAZ

ARIZONA REGIONAL HOURLY WEATHER ROUNDUP
NATIONAL WEATHER SERVICE TUCSON AZ
800 PM MST WED MAY 24 2017

NOTE: FAIR INDICATES FEW OR NO CLOUDS BELOW 12,000 FEET WITH NO
SIGNIFICANT WEATHER AND/OR OBSTRUCTIONS TO VISIBILITY.

AZZ001>003-036-250400-
NORTHWEST ARIZONA

CITY           SKY/WX    TMP DP  RH WIND       PRES   REMARKS
BULLHEAD CITY  PTCLDY   100  21   6 S14       29.44S
KINGMAN        MOCLDY    84  22  10 S12       29.69S
$$

AZZ004>008-015-016-018-250400-
NORTH CENTRAL ARIZONA

CITY           SKY/WX    TMP DP  RH WIND       PRES   REMARKS
GRAND CANYON   MOCLDY    69  23  17 SW12      29.91S
PRESCOTT       CLEAR     77   7   7 SW14G21   29.85R
FLAGSTAFF      PTCLDY    68  23  18 SW15      29.95S
PAYSON         PTCLDY    79  21  11 SW8       29.90S
PAGE           PTCLDY    87  22   9 SW10G21   29.64R
$$

AZZ009>014-017-250400-
NORTHEAST ARIZONA

CITY           SKY/WX    TMP DP  RH WIND       PRES   REMARKS
WINSLOW        PTCLDY    79  24  13 SW17      29.82R
SAINT JOHNS    PTCLDY    74  19  12 SW12      29.88R
WINDOW ROCK    CLEAR     72  22  15 SW15G21   29.89R
SHOW LOW       MOCLDY    68  19  15 SW13      29.97R
$$

AZZ023-250400-
GREATER PHOENIX AREA

CITY           SKY/WX    TMP DP  RH WIND       PRES   REMARKS
PHOENIX        MOCLDY    99  27   8 SW14      29.56R
BUCKEYE        CLOUDY    95  25   8 SW12      29.57S
GLENDALE       MOCLDY    99  27   8 S12       29.58R
LUKE AFB       MOCLDY    97  24   7 SW12      29.56R
DEER VALLEY    MOCLDY    96  22   7 SW14      29.58R
SCOTTSDALE     PTCLDY    98  24   7 W9G20     29.60R
MESA-FALCON    PTCLDY   N/A N/A N/A W14       29.58F
MESA-GATEWAY   MOCLDY    97  27   8 W14       29.60R
CHANDLER       CLEAR     97  25   7 SW17      29.58S
$$

AZZ027-028-250400-
SOUTHWEST MARICOPA COUNTY AND PINAL COUNTY

CITY           SKY/WX    TMP DP  RH WIND       PRES   REMARKS
CASA GRANDE    MOCLDY    95  31  10 SW15        N/A
$$

AZZ503-504-507>509-250400-
SOUTHEAST ARIZONA

CITY           SKY/WX    TMP DP  RH WIND       PRES   REMARKS
TUCSON         CLEAR     92  25   9 W14G22    29.74R
DAVIS-MONTHAN  PTCLDY    92  23   8 W14G20    29.73R
RYAN FIELD     CLEAR     91  25   9 W15G22    29.73R
NOGALES        CLEAR     85  24  11 W14G21    29.85R
SIERRA VISTA   CLEAR     83  16   8 SW15      29.90S
DOUGLAS        CLEAR     84  16   8 W14       29.84R
SAFFORD        CLEAR     88  21   8 NW9       29.71R
$$

AZZ020-021-025-026-031-250400-
SOUTHWEST ARIZONA

CITY           SKY/WX    TMP DP  RH WIND       PRES   REMARKS
YUMA           PTCLDY    92  28  10 W7        29.56R
$$

CAZ031-033-041-043-047-048-061-250400-
SOUTHERN CALIFORNIA

CITY           SKY/WX    TMP DP  RH WIND       PRES   REMARKS
DOWNTOWN L.A.  PTCLDY    62  54  74 VRB3      29.80S
L.A. AIRPORT   MOCLDY    59  53  80 W10       29.81S
SAN DIEGO      CLOUDY    62  53  72 W8        29.86R
BURBANK        CLEAR     61  52  72 S9        29.78S
ONTARIO        PTCLDY    66  52  60 W14       29.78R
RIVERSIDE      CLEAR     65  55  70 W8        29.78R
PALM SPRINGS   CLEAR     93  31  11 N22G29    29.57R
EL CENTRO NAS  MOCLDY    90  17   7 W20       29.57S
IMPERIAL       LGT RAIN  89  29  11 W23G30    29.54S
BLYTHE         PTCLDY    97  30   9 SW23      29.52S
NEEDLES        PTCLDY   103  -4   2 SW22G28   29.48S
$$

NVZ020-UTZ003-250400-
SOUTHERN NEVADA-UTAH

CITY           SKY/WX    TMP DP  RH WIND       PRES   REMARKS
LAS VEGAS      PTCLDY    94  14   5 SW15G26   29.52S
SALT LAKE CITY CLOUDY    71  49  45 SE14      29.54F
$$

NMZ009-TXZ055-250400-
NEW MEXICO-WEST TEXAS

CITY           SKY/WX    TMP DP  RH WIND       PRES   REMARKS
ALBUQUERQUE    PTCLDY    80  16   9 W8        29.78R
EL PASO        CLEAR     92   8   4 W18       29.75R
$$


........................KEY........................
SKY/WX - SKY CONDITION/WEATHER
TMP    - TEMPERATURE IN FAHRENHEIT
DP     - DEWPOINT IN FAHRENHEIT
RH     - RELATIVE HUMIDITY IN PERCENT
WIND   - DIRECTION AND SPEED IN MILES PER HOUR (MPH)
VRB    - VARIABLE WIND DIRECTION
PRES   - MEAN SEA LEVEL PRESSURE IN INCHES OF MERCURY
         F - FALLING PRESSURE   R - RISING PRESSURE
         S - STEADY PRESSURE
VSB    - VISIBILITY IN MILES
HX     - HEAT INDEX IN FAHRENHEIT
WCI    - WIND CHILL INDEX IN FAHRENHEIT
TC     - TEMPERATURE IN CELSIUS WHICH IS ALSO KNOWN AS
         TEMPERATURE IN CENTIGRADE
AFB    - AIR FORCE BASE
         LUKE AFB IS LUKE AIR FORCE BASE
         DAVIS-MONTHAN IS DAVIS-MONTHAN AIR FORCE BASE
NAS    - NAVAL AIR STATION
         EL CENTRO NAS IS EL CENTRO NAVAL AIR STATION
N/A    - NOT AVAILABLE





USA.gov is the U.S. government's official web portal to all federal, state and local government web resources and services.